Time,TemperatureF,DewpointF,PressureIn,WindDirection,WindDirectionDegrees,WindSpeedMPH,WindSpeedGustMPH,Humidity,HourlyPrecipIn,Conditions,Clouds,dailyrainin,SoftwareType,DateUTC
2013-04-28 00:01:00,29.0,14.0,30.25,East,92,0.0,-999.0,52,-99.99,,,-99.99,,2013-04-28 06:01:00,
2013-04-28 00:12:00,29.0,14.0,30.25,East,92,0.0,-999.0,52,-99.99,,,-99.99,,2013-04-28 06:12:00,
2013-04-28 00:21:00,29.0,13.0,30.25,East,92,0.0,-999.0,51,-99.99,,,-99.99,,2013-04-28 06:21:00,
2013-04-28 00:32:00,29.0,14.0,30.24,East,92,0.0,-999.0,54,-99.99,,,-99.99,,2013-04-28 06:32:00,
2013-04-28 00:42:00,29.0,14.0,30.24,East,92,0.0,-999.0,54,-99.99,,,-99.99,,2013-04-28 06:42:00,
2013-04-28 00:51:00,28.0,14.0,30.24,East,92,0.0,-999.0,56,-99.99,,,-99.99,,2013-04-28 06:51:00,
2013-04-28 01:01:00,27.0,14.0,30.24,East,92,0.0,-999.0,58,-99.99,,,-99.99,,2013-04-28 07:01:00,
2013-04-28 01:11:00,27.0,14.0,30.24,East,92,0.0,-999.0,58,-99.99,,,-99.99,,2013-04-28 07:11:00,
2013-04-28 01:21:00,28.0,13.0,30.23,East,92,0.0,-999.0,53,-99.99,,,-99.99,,2013-04-28 07:21:00,
2013-04-28 01:31:00,30.0,14.0,30.22,East,92,0.0,-999.0,50,-99.99,,,-99.99,,2013-04-28 07:31:00,
2013-04-28 01:42:00,30.0,14.0,30.22,East,92,0.0,-999.0,50,-99.99,,,-99.99,,2013-04-28 07:42:00,
2013-04-28 01:52:00,30.0,14.0,30.22,East,92,1.0,-999.0,50,-99.99,,,-99.99,,2013-04-28 07:52:00,
2013-04-28 02:02:00,30.0,13.0,30.22,East,92,0.0,-999.0,49,-99.99,,,-99.99,,2013-04-28 08:02:00,
2013-04-28 02:11:00,30.0,13.0,30.22,East,92,0.0,-999.0,49,-99.99,,,-99.99,,2013-04-28 08:11:00,
2013-04-28 02:21:00,30.0,15.0,30.21,East,92,0.0,-999.0,52,-99.99,,,-99.99,,2013-04-28 08:21:00,
2013-04-28 02:32:00,31.0,13.0,30.20,NE,43,2.0,-999.0,47,-99.99,,,-99.99,,2013-04-28 08:32:00,
2013-04-28 02:42:00,31.0,13.0,30.20,NE,43,2.0,-999.0,47,-99.99,,,-99.99,,2013-04-28 08:42:00,
2013-04-28 02:52:00,31.0,12.0,30.19,NE,45,1.0,-999.0,45,-99.99,,,-99.99,,2013-04-28 08:52:00,
2013-04-28 03:01:00,31.0,13.0,30.19,NE,45,1.0,-999.0,47,-99.99,,,-99.99,,2013-04-28 09:01:00,
2013-04-28 03:11:00,31.0,13.0,30.19,NE,45,1.0,-999.0,47,-99.99,,,-99.99,,2013-04-28 09:11:00,
2013-04-28 03:21:00,32.0,10.0,30.18,ENE,61,1.0,-999.0,40,-99.99,,,-99.99,,2013-04-28 09:21:00,
2013-04-28 03:33:00,33.0,10.0,30.18,West,266,0.0,-999.0,38,-99.99,,,-99.99,,2013-04-28 09:33:00,
2013-04-28 03:42:00,33.0,10.0,30.18,West,266,0.0,-999.0,38,-99.99,,,-99.99,,2013-04-28 09:42:00,
2013-04-28 03:53:00,34.0,10.0,30.17,South,187,0.0,-999.0,36,-99.99,,,-99.99,,2013-04-28 09:53:00,
2013-04-28 04:03:00,34.0,10.0,30.18,SSW,207,0.0,-999.0,36,-99.99,,,-99.99,,2013-04-28 10:03:00,
2013-04-28 04:12:00,34.0,10.0,30.18,SSW,207,0.0,-999.0,36,-99.99,,,-99.99,,2013-04-28 10:12:00,
2013-04-28 04:22:00,33.0,11.0,30.17,SSW,207,0.0,-999.0,39,-99.99,,,-99.99,,2013-04-28 10:22:00,
2013-04-28 04:32:00,30.0,9.0,30.17,SSW,207,0.0,-999.0,41,-99.99,,,-99.99,,2013-04-28 10:32:00,
2013-04-28 04:42:00,30.0,9.0,30.17,SSW,207,0.0,-999.0,41,-99.99,,,-99.99,,2013-04-28 10:42:00,
2013-04-28 04:52:00,28.0,9.0,30.17,SSE,160,0.0,-999.0,45,-99.99,,,-99.99,,2013-04-28 10:52:00,
2013-04-28 05:02:00,27.0,9.0,30.16,SSE,160,0.0,-999.0,47,-99.99,,,-99.99,,2013-04-28 11:02:00,
2013-04-28 05:11:00,27.0,9.0,30.16,SSE,160,0.0,-999.0,47,-99.99,,,-99.99,,2013-04-28 11:11:00,
2013-04-28 05:22:00,27.0,11.0,30.16,SSE,159,1.0,-999.0,51,-99.99,,,-99.99,,2013-04-28 11:22:00,
2013-04-28 05:32:00,28.0,12.0,30.15,SSE,159,0.0,-999.0,50,-99.99,,,-99.99,,2013-04-28 11:32:00,
2013-04-28 05:42:00,28.0,12.0,30.15,SSE,159,0.0,-999.0,50,-99.99,,,-99.99,,2013-04-28 11:42:00,
2013-04-28 05:52:00,29.0,12.0,30.14,SW,234,1.0,-999.0,49,-99.99,,,-99.99,,2013-04-28 11:52:00,
2013-04-28 06:02:00,32.0,14.0,30.14,SE,135,1.0,-999.0,46,-99.99,,,-99.99,,2013-04-28 12:02:00,
2013-04-28 06:12:00,32.0,14.0,30.14,SE,135,1.0,-999.0,46,-99.99,,,-99.99,,2013-04-28 12:12:00,
2013-04-28 06:21:00,33.0,15.0,30.13,SW,218,2.0,-999.0,46,-99.99,,,-99.99,,2013-04-28 12:21:00,
2013-04-28 06:32:00,33.0,14.0,30.13,SSW,195,0.0,-999.0,45,-99.99,,,-99.99,,2013-04-28 12:32:00,
2013-04-28 06:42:00,33.0,14.0,30.13,SSW,195,0.0,-999.0,45,-99.99,,,-99.99,,2013-04-28 12:42:00,
2013-04-28 06:52:00,33.0,13.0,30.14,ENE,71,0.0,-999.0,44,-99.99,,,-99.99,,2013-04-28 12:52:00,
2013-04-28 07:02:00,33.0,15.0,30.14,SW,219,1.0,-999.0,46,-99.99,,,-99.99,,2013-04-28 13:02:00,
2013-04-28 07:11:00,33.0,15.0,30.14,SW,219,1.0,-999.0,46,-99.99,,,-99.99,,2013-04-28 13:11:00,
2013-04-28 07:21:00,34.0,16.0,30.13,ESE,111,1.0,-999.0,47,-99.99,,,-99.99,,2013-04-28 13:21:00,
2013-04-28 07:32:00,35.0,15.0,30.13,WNW,289,1.0,-999.0,43,-99.99,,,-99.99,,2013-04-28 13:32:00,
2013-04-28 07:42:00,35.0,15.0,30.13,WNW,289,1.0,-999.0,43,-99.99,,,-99.99,,2013-04-28 13:42:00,
2013-04-28 07:52:00,36.0,15.0,30.12,West,263,2.0,-999.0,42,-99.99,,,-99.99,,2013-04-28 13:52:00,
2013-04-28 08:02:00,38.0,15.0,30.12,WNW,291,3.0,-999.0,39,-99.99,,,-99.99,,2013-04-28 14:02:00,
2013-04-28 08:11:00,38.0,15.0,30.12,WNW,291,3.0,-999.0,39,-99.99,,,-99.99,,2013-04-28 14:11:00,
2013-04-28 08:21:00,39.0,16.0,30.12,SW,234,2.0,-999.0,38,-99.99,,,-99.99,,2013-04-28 14:21:00,
2013-04-28 08:32:00,40.0,16.0,30.12,SW,222,3.0,-999.0,37,-99.99,,,-99.99,,2013-04-28 14:32:00,
2013-04-28 08:42:00,40.0,16.0,30.12,SW,222,3.0,-999.0,37,-99.99,,,-99.99,,2013-04-28 14:42:00,
2013-04-28 08:52:00,41.0,19.0,30.11,East,80,2.0,-999.0,41,-99.99,,,-99.99,,2013-04-28 14:52:00,
2013-04-28 09:02:00,42.0,16.0,30.11,SW,223,1.0,-999.0,35,-99.99,,,-99.99,,2013-04-28 15:02:00,
2013-04-28 09:12:00,42.0,16.0,30.11,SW,223,1.0,-999.0,35,-99.99,,,-99.99,,2013-04-28 15:12:00,
2013-04-28 09:21:00,43.0,17.0,30.11,SSW,208,2.0,-999.0,35,-99.99,,,-99.99,,2013-04-28 15:21:00,
2013-04-28 09:32:00,44.0,17.0,30.10,WSW,251,2.0,-999.0,34,-99.99,,,-99.99,,2013-04-28 15:32:00,
2013-04-28 09:42:00,44.0,17.0,30.10,WSW,251,2.0,-999.0,34,-99.99,,,-99.99,,2013-04-28 15:42:00,
2013-04-28 09:53:00,44.0,16.0,30.09,SSW,210,2.0,-999.0,32,-99.99,,,-99.99,,2013-04-28 15:53:00,
2013-04-28 10:03:00,45.0,17.0,30.08,East,88,2.0,-999.0,32,-99.99,,,-99.99,,2013-04-28 16:03:00,
2013-04-28 10:13:00,45.0,17.0,30.08,East,88,2.0,-999.0,32,-99.99,,,-99.99,,2013-04-28 16:13:00,
2013-04-28 10:23:00,45.0,17.0,30.08,East,91,3.0,-999.0,32,-99.99,,,-99.99,,2013-04-28 16:23:00,
2013-04-28 10:33:00,46.0,18.0,30.07,SE,142,3.0,-999.0,32,-99.99,,,-99.99,,2013-04-28 16:33:00,
2013-04-28 10:42:00,46.0,18.0,30.07,SE,142,3.0,-999.0,32,-99.99,,,-99.99,,2013-04-28 16:42:00,
2013-04-28 10:52:00,46.0,17.0,30.08,East,87,3.0,-999.0,31,-99.99,,,-99.99,,2013-04-28 16:52:00,
2013-04-28 11:02:00,47.0,18.0,30.08,SSW,198,3.0,-999.0,31,-99.99,,,-99.99,,2013-04-28 17:02:00,
2013-04-28 11:12:00,47.0,18.0,30.08,SSW,198,3.0,-999.0,31,-99.99,,,-99.99,,2013-04-28 17:12:00,
2013-04-28 11:22:00,48.0,20.0,30.08,ENE,63,2.0,-999.0,32,-99.99,,,-99.99,,2013-04-28 17:22:00,
2013-04-28 11:32:00,48.0,16.0,30.08,NE,53,2.0,-999.0,28,-99.99,,,-99.99,,2013-04-28 17:32:00,
2013-04-28 11:42:00,48.0,16.0,30.08,NE,53,2.0,-999.0,28,-99.99,,,-99.99,,2013-04-28 17:42:00,
2013-04-28 11:51:00,49.0,17.0,30.08,SSE,163,2.0,-999.0,28,-99.99,,,-99.99,,2013-04-28 17:51:00,
2013-04-28 12:02:00,49.0,20.0,30.08,NNE,15,2.0,-999.0,31,-99.99,,,-99.99,,2013-04-28 18:02:00,
2013-04-28 12:12:00,49.0,20.0,30.08,NNE,15,2.0,-999.0,31,-99.99,,,-99.99,,2013-04-28 18:12:00,
2013-04-28 12:22:00,49.0,19.0,30.08,SSW,203,3.0,-999.0,30,-99.99,,,-99.99,,2013-04-28 18:22:00,
2013-04-28 12:32:00,49.0,18.0,30.06,ESE,110,3.0,-999.0,29,-99.99,,,-99.99,,2013-04-28 18:32:00,
2013-04-28 12:42:00,49.0,18.0,30.06,ESE,110,3.0,-999.0,29,-99.99,,,-99.99,,2013-04-28 18:42:00,
2013-04-28 12:52:00,50.0,18.0,30.06,South,190,2.0,-999.0,28,-99.99,,,-99.99,,2013-04-28 18:52:00,
2013-04-28 13:02:00,50.0,18.0,30.06,SSW,193,3.0,-999.0,28,-99.99,,,-99.99,,2013-04-28 19:02:00,
2013-04-28 13:11:00,50.0,18.0,30.06,SSW,193,3.0,-999.0,28,-99.99,,,-99.99,,2013-04-28 19:11:00,
2013-04-28 13:21:00,50.0,19.0,30.06,ESE,111,2.0,-999.0,29,-99.99,,,-99.99,,2013-04-28 19:21:00,
2013-04-28 13:32:00,50.0,18.0,30.05,NNW,346,2.0,-999.0,28,-99.99,,,-99.99,,2013-04-28 19:32:00,
2013-04-28 13:42:00,50.0,18.0,30.05,NNW,346,2.0,-999.0,28,-99.99,,,-99.99,,2013-04-28 19:42:00,
2013-04-28 13:52:00,51.0,19.0,30.04,ESE,117,2.0,-999.0,28,-99.99,,,-99.99,,2013-04-28 19:52:00,
2013-04-28 14:02:00,51.0,19.0,30.03,South,183,2.0,-999.0,28,-99.99,,,-99.99,,2013-04-28 20:02:00,
2013-04-28 14:12:00,51.0,19.0,30.03,South,183,2.0,-999.0,28,-99.99,,,-99.99,,2013-04-28 20:12:00,
2013-04-28 14:22:00,52.0,20.0,30.03,ENE,72,2.0,-999.0,28,-99.99,,,-99.99,,2013-04-28 20:22:00,
2013-04-28 14:32:00,52.0,20.0,30.03,ENE,76,2.0,-999.0,28,-99.99,,,-99.99,,2013-04-28 20:32:00,
2013-04-28 14:42:00,52.0,20.0,30.03,ENE,76,2.0,-999.0,28,-99.99,,,-99.99,,2013-04-28 20:42:00,
2013-04-28 14:52:00,52.0,21.0,30.02,NNW,331,1.0,-999.0,29,-99.99,,,-99.99,,2013-04-28 20:52:00,
2013-04-28 15:01:00,52.0,20.0,30.02,WSW,241,1.0,-999.0,28,-99.99,,,-99.99,,2013-04-28 21:01:00,
2013-04-28 15:11:00,52.0,20.0,30.02,WSW,241,1.0,-999.0,28,-99.99,,,-99.99,,2013-04-28 21:11:00,
2013-04-28 15:22:00,53.0,19.0,30.01,ENE,66,1.0,-999.0,26,-99.99,,,-99.99,,2013-04-28 21:22:00,
2013-04-28 15:33:00,53.0,20.0,30.01,East,99,3.0,-999.0,27,-99.99,,,-99.99,,2013-04-28 21:33:00,
2013-04-28 15:42:00,53.0,20.0,30.01,East,99,3.0,-999.0,27,-99.99,,,-99.99,,2013-04-28 21:42:00,
2013-04-28 15:52:00,52.0,20.0,29.99,ESE,120,2.0,-999.0,28,-99.99,,,-99.99,,2013-04-28 21:52:00,
2013-04-28 16:03:00,52.0,19.0,30.00,SSW,204,2.0,-999.0,27,-99.99,,,-99.99,,2013-04-28 22:03:00,
2013-04-28 16:12:00,52.0,19.0,30.00,SSW,204,2.0,-999.0,27,-99.99,,,-99.99,,2013-04-28 22:12:00,
2013-04-28 16:22:00,52.0,21.0,29.98,ENE,70,2.0,-999.0,29,-99.99,,,-99.99,,2013-04-28 22:22:00,
2013-04-28 16:33:00,52.0,18.0,29.97,ESE,112,3.0,-999.0,26,-99.99,,,-99.99,,2013-04-28 22:33:00,
2013-04-28 16:42:00,52.0,18.0,29.97,ESE,112,3.0,-999.0,26,-99.99,,,-99.99,,2013-04-28 22:42:00,
2013-04-28 16:52:00,52.0,20.0,29.98,ENE,68,2.0,-999.0,28,-99.99,,,-99.99,,2013-04-28 22:52:00,
2013-04-28 17:02:00,52.0,18.0,29.98,East,90,2.0,-999.0,26,-99.99,,,-99.99,,2013-04-28 23:02:00,
2013-04-28 17:12:00,52.0,18.0,29.98,East,90,2.0,-999.0,26,-99.99,,,-99.99,,2013-04-28 23:12:00,
2013-04-28 17:22:00,52.0,20.0,29.97,NE,36,3.0,-999.0,28,-99.99,,,-99.99,,2013-04-28 23:22:00,
2013-04-28 17:32:00,52.0,18.0,29.98,East,80,4.0,-999.0,26,-99.99,,,-99.99,,2013-04-28 23:32:00,
2013-04-28 17:42:00,52.0,18.0,29.98,East,80,4.0,-999.0,26,-99.99,,,-99.99,,2013-04-28 23:42:00,
2013-04-28 17:52:00,51.0,18.0,29.97,East,101,2.0,-999.0,27,-99.99,,,-99.99,,2013-04-28 23:52:00,
2013-04-28 18:01:00,51.0,20.0,29.97,ESE,103,2.0,-999.0,29,-99.99,,,-99.99,,2013-04-29 00:01:00,
2013-04-28 18:11:00,51.0,20.0,29.97,ESE,103,2.0,-999.0,29,-99.99,,,-99.99,,2013-04-29 00:11:00,
2013-04-28 18:22:00,50.0,18.0,29.96,East,79,2.0,-999.0,28,-99.99,,,-99.99,,2013-04-29 00:22:00,
2013-04-28 18:32:00,50.0,19.0,29.96,NE,49,3.0,-999.0,29,-99.99,,,-99.99,,2013-04-29 00:32:00,
2013-04-28 18:42:00,50.0,19.0,29.96,NE,49,3.0,-999.0,29,-99.99,,,-99.99,,2013-04-29 00:42:00,
2013-04-28 18:52:00,49.0,20.0,29.96,NE,53,1.0,-999.0,31,-99.99,,,-99.99,,2013-04-29 00:52:00,
2013-04-28 19:01:00,48.0,20.0,29.96,SSW,207,0.0,-999.0,33,-99.99,,,-99.99,,2013-04-29 01:01:00,
2013-04-28 19:12:00,47.0,19.0,29.96,ESE,107,1.0,-999.0,32,-99.99,,,-99.99,,2013-04-29 01:12:00,
2013-04-28 19:21:00,47.0,19.0,29.96,ESE,107,1.0,-999.0,32,-99.99,,,-99.99,,2013-04-29 01:21:00,
2013-04-28 19:32:00,46.0,19.0,29.95,NNE,32,0.0,-999.0,33,-99.99,,,-99.99,,2013-04-29 01:32:00,
2013-04-28 19:42:00,46.0,19.0,29.95,NNE,32,0.0,-999.0,33,-99.99,,,-99.99,,2013-04-29 01:42:00,
2013-04-28 19:52:00,45.0,18.0,29.96,NNE,32,0.0,-999.0,34,-99.99,,,-99.99,,2013-04-29 01:52:00,
2013-04-28 20:02:00,44.0,19.0,29.96,NNE,32,0.0,-999.0,36,-99.99,,,-99.99,,2013-04-29 02:02:00,
2013-04-28 20:11:00,44.0,19.0,29.96,NNE,32,0.0,-999.0,36,-99.99,,,-99.99,,2013-04-29 02:11:00,
2013-04-28 20:21:00,42.0,18.0,29.96,NNE,32,0.0,-999.0,38,-99.99,,,-99.99,,2013-04-29 02:21:00,
2013-04-28 20:32:00,40.0,18.0,29.96,NNE,32,0.0,-999.0,41,-99.99,,,-99.99,,2013-04-29 02:32:00,
2013-04-28 20:42:00,40.0,18.0,29.96,NNE,32,0.0,-999.0,41,-99.99,,,-99.99,,2013-04-29 02:42:00,
2013-04-28 20:51:00,38.0,19.0,29.96,NNE,32,0.0,-999.0,45,-99.99,,,-99.99,,2013-04-29 02:51:00,
2013-04-28 21:01:00,37.0,21.0,29.97,NNE,32,0.0,-999.0,52,-99.99,,,-99.99,,2013-04-29 03:01:00,
2013-04-28 21:12:00,37.0,21.0,29.97,NNE,32,0.0,-999.0,52,-99.99,,,-99.99,,2013-04-29 03:12:00,
2013-04-28 21:21:00,36.0,21.0,29.96,NNE,32,0.0,-999.0,53,-99.99,,,-99.99,,2013-04-29 03:21:00,
2013-04-28 21:33:00,35.0,20.0,29.97,NNE,32,0.0,-999.0,54,-99.99,,,-99.99,,2013-04-29 03:33:00,
2013-04-28 21:42:00,35.0,20.0,29.97,NNE,32,0.0,-999.0,54,-99.99,,,-99.99,,2013-04-29 03:42:00,
2013-04-28 21:52:00,34.0,19.0,29.97,NNE,32,0.0,-999.0,54,-99.99,,,-99.99,,2013-04-29 03:52:00,
2013-04-28 22:03:00,33.0,21.0,29.97,NNE,32,0.0,-999.0,61,-99.99,,,-99.99,,2013-04-29 04:03:00,
2013-04-28 22:13:00,33.0,21.0,29.97,NNE,32,0.0,-999.0,61,-99.99,,,-99.99,,2013-04-29 04:13:00,
2013-04-28 22:23:00,33.0,21.0,29.98,NNE,32,0.0,-999.0,60,-99.99,,,-99.99,,2013-04-29 04:23:00,
2013-04-28 22:33:00,33.0,20.0,29.98,NNE,32,0.0,-999.0,59,-99.99,,,-99.99,,2013-04-29 04:33:00,
2013-04-28 22:43:00,33.0,20.0,29.98,NNE,32,0.0,-999.0,59,-99.99,,,-99.99,,2013-04-29 04:43:00,
2013-04-28 22:52:00,32.0,19.0,29.99,NNE,32,0.0,-999.0,57,-99.99,,,-99.99,,2013-04-29 04:52:00,
2013-04-28 23:02:00,33.0,18.0,29.99,NNE,32,0.0,-999.0,54,-99.99,,,-99.99,,2013-04-29 05:02:00,
2013-04-28 23:12:00,33.0,18.0,29.99,NNE,32,0.0,-999.0,54,-99.99,,,-99.99,,2013-04-29 05:12:00,
2013-04-28 23:22:00,32.0,19.0,29.98,NNE,32,0.0,-999.0,59,-99.99,,,-99.99,,2013-04-29 05:22:00,
2013-04-28 23:32:00,32.0,19.0,29.98,NNE,32,0.0,-999.0,58,-99.99,,,-99.99,,2013-04-29 05:32:00,
2013-04-28 23:42:00,32.0,19.0,29.98,NNE,32,0.0,-999.0,58,-99.99,,,-99.99,,2013-04-29 05:42:00,
2013-04-28 23:52:00,32.0,20.0,29.97,NNE,32,0.0,-999.0,60,-99.99,,,-99.99,,2013-04-29 05:52:00,